Tracking 30107 objects as of 19-Jan-2025
HD Live streaming from Space Station
objects crossing your sky now

CZ-3B R/B

Track CZ-3B R/B now!


NORAD ID: 25405
Int'l Code: 1998-044B
Perigee: 545.4 km
Apogee: 35,807.6 km
Inclination: 18.1 °
Period: 637.9 minutes
Semi major axis: 24547 km
RCS: 22.0892 m2 (large)
Launch date: July 18, 1998
Source: People's Republic of China (PRC)
Launch site: Xichang Space Center, China (XSC)

Note: This is a ROCKET BODY
Your satellite tracking list
Your tracking list is empty




NASA's NSSDC Master Catalog

Two Line Element Set (TLE):
1 25405U 98044B   25018.30991388  .00000102  00000-0  13102-2 0  9990
2 25405  18.0525 182.5509 7182452 103.0239  70.0056  2.25731428218458
Source of the keplerian elements: AFSPC